�������l�o���
Date,Time,MP-1(��Sv/h),MP-2(��Sv/h),MP-3(��Sv/h),MP-4(��Sv/h),MP-5(��Sv/h),MP-6(��Sv/h),MP-7(��Sv/h),MP-8(��Sv/h),����,����(m/s),���J
2017/10/12,00:00,0.926,1.451,0.943,1.739,1.204,0.501,0.921,0.855,��쓌,6.3,��
2017/10/12,00:10,0.927,1.451,0.943,1.738,1.201,0.503,0.923,0.854,��쓌,5.5,��
2017/10/12,00:20,0.926,1.449,0.943,1.739,1.202,0.503,0.922,0.855,��,4.6,��
2017/10/12,00:30,0.924,1.453,0.945,1.740,1.201,0.503,0.923,0.855,��,4.7,��
2017/10/12,00:40,0.927,1.453,0.943,1.740,1.203,0.502,0.923,0.856,��,6.3,��
2017/10/12,00:50,0.924,1.451,0.944,1.741,1.204,0.503,0.924,0.856,��쓌,6.7,��
2017/10/12,01:00,0.925,1.453,0.944,1.740,1.203,0.502,0.924,0.854,��,6.0,��
2017/10/12,01:10,0.925,1.452,0.943,1.738,1.203,0.502,0.924,0.855,��쓌,7.2,��
2017/10/12,01:20,0.922,1.450,0.945,1.739,1.200,0.502,0.923,0.854,��쓌,7.9,��
2017/10/12,01:30,0.922,1.452,0.945,1.741,1.205,0.504,0.926,0.856,��,8.1,��
2017/10/12,01:40,0.923,1.454,0.946,1.739,1.202,0.501,0.925,0.854,��,7.4,��
2017/10/12,01:50,0.924,1.453,0.944,1.739,1.202,0.503,0.923,0.856,��,6.8,��
2017/10/12,02:00,0.923,1.453,0.946,1.739,1.202,0.503,0.926,0.856,��,7.3,��
2017/10/12,02:10,0.923,1.452,0.946,1.740,1.204,0.503,0.924,0.854,��,7.3,��
2017/10/12,02:20,0.925,1.450,0.945,1.740,1.201,0.504,0.926,0.856,��쐼,7.9,��
2017/10/12,02:30,0.924,1.455,0.946,1.739,1.204,0.504,0.924,0.855,��쐼,6.7,��
2017/10/12,02:40,0.925,1.453,0.943,1.739,1.201,0.506,0.925,0.857,��쐼,6.4,��
2017/10/12,02:50,0.925,1.454,0.945,1.740,1.204,0.506,0.924,0.855,��쐼,6.0,��
2017/10/12,03:00,0.925,1.453,0.948,1.741,1.205,0.505,0.926,0.855,��쐼,5.0,��
2017/10/12,03:10,0.925,1.455,0.943,1.743,1.206,0.506,0.925,0.854,��쐼,5.2,��
2017/10/12,03:20,0.924,1.454,0.948,1.742,1.203,0.505,0.925,0.854,�쐼,4.6,��
2017/10/12,03:30,0.926,1.455,0.944,1.741,1.205,0.505,0.925,0.856,�쐼,5.1,��
2017/10/12,03:40,0.926,1.454,0.946,1.739,1.203,0.506,0.924,0.856,�쐼,4.8,��
2017/10/12,03:50,0.928,1.455,0.948,1.739,1.204,0.506,0.924,0.855,��쐼,3.1,��
2017/10/12,04:00,0.926,1.453,0.947,1.740,1.205,0.506,0.924,0.856,��쐼,2.0,��
2017/10/12,04:10,0.926,1.454,0.946,1.741,1.203,0.507,0.923,0.856,�쐼,3.3,��
2017/10/12,04:20,0.927,1.452,0.946,1.738,1.204,0.506,0.925,0.855,�쐼,3.8,��
2017/10/12,04:30,0.924,1.453,0.948,1.738,1.206,0.506,0.924,0.855,��쐼,1.2,��
2017/10/12,04:40,0.925,1.454,0.948,1.737,1.204,0.506,0.924,0.856,�쓌,2.0,��
2017/10/12,04:50,0.927,1.454,0.947,1.740,1.205,0.506,0.924,0.855,��쓌,2.6,��
2017/10/12,05:00,0.924,1.454,0.948,1.741,1.205,0.505,0.925,0.857,�쓌,4.5,��
2017/10/12,05:10,0.926,1.452,0.947,1.741,1.203,0.506,0.923,0.854,��쓌,6.0,��
2017/10/12,05:20,0.924,1.454,0.946,1.743,1.203,0.506,0.925,0.856,��쓌,6.7,��
2017/10/12,05:30,0.923,1.454,0.949,1.740,1.201,0.505,0.923,0.854,��쓌,5.7,��
2017/10/12,05:40,0.924,1.452,0.946,1.741,1.204,0.507,0.924,0.857,��쓌,6.2,��
2017/10/12,05:50,0.925,1.451,0.947,1.742,1.206,0.505,0.923,0.855,��쓌,5.2,��
2017/10/12,06:00,0.925,1.453,0.947,1.739,1.200,0.505,0.925,0.857,��,5.5,��
2017/10/12,06:10,0.927,1.456,0.948,1.740,1.205,0.506,0.923,0.856,��,4.3,��
2017/10/12,06:20,0.924,1.455,0.947,1.742,1.206,0.505,0.926,0.857,��쐼,3.4,��
2017/10/12,06:30,0.926,1.455,0.946,1.741,1.205,0.505,0.925,0.857,�쐼,2.6,��
2017/10/12,06:40,0.927,1.458,0.947,1.742,1.203,0.505,0.926,0.858,���쐼,3.0,��
2017/10/12,06:50,0.925,1.456,0.947,1.740,1.205,0.506,0.928,0.856,�쐼,2.0,��
2017/10/12,07:00,0.928,1.457,0.948,1.743,1.204,0.505,0.926,0.857,�쐼,2.2,��
2017/10/12,07:10,0.929,1.459,0.949,1.741,1.207,0.507,0.925,0.856,���쐼,2.2,��
2017/10/12,07:20,0.930,1.457,0.950,1.743,1.203,0.507,0.927,0.856,��쐼,1.9,��
2017/10/12,07:30,0.928,1.460,0.951,1.744,1.204,0.505,0.927,0.855,��쓌,1.9,��
2017/10/12,07:40,0.929,1.457,0.948,1.749,1.201,0.505,0.927,0.856,�k�k��,1.7,��
2017/10/12,07:50,0.929,1.454,0.945,1.744,1.201,0.506,0.926,0.856,��쓌,1.1,��
2017/10/12,08:00,0.925,1.451,0.945,1.743,1.203,0.505,0.923,0.856,��,1.2,��
2017/10/12,08:10,0.926,1.452,0.946,1.743,1.203,0.504,0.926,0.855,�k,1.7,��
2017/10/12,08:20,0.927,1.453,0.943,1.745,1.202,0.503,0.925,0.856,�k�k��,1.5,��
2017/10/12,08:30,0.927,1.450,0.946,1.746,1.202,0.505,0.923,0.855,�k�k��,2.0,��
2017/10/12,08:40,0.928,1.453,0.946,1.745,1.202,0.502,0.926,0.854,�k�k��,2.3,��
2017/10/12,08:50,0.925,1.451,0.945,1.743,1.205,0.503,0.926,0.854,�k�k��,2.6,��
2017/10/12,09:00,0.925,1.449,0.945,1.743,1.201,0.502,0.927,0.853,�k��,5.8,��
2017/10/12,09:10,0.926,1.451,0.947,1.746,1.202,0.502,0.925,0.856,�k��,5.1,��
2017/10/12,09:20,0.926,1.451,0.945,1.744,1.203,0.503,0.924,0.855,�k��,4.3,��
2017/10/12,09:30,0.926,1.450,0.949,1.748,1.204,0.503,0.925,0.853,�k��,3.6,��
2017/10/12,09:40,0.927,1.454,0.947,1.748,1.202,0.504,0.927,0.855,�k��,3.1,��
2017/10/12,09:50,0.926,1.454,0.950,1.749,1.205,0.504,0.927,0.855,�k��,4.4,��
2017/10/12,10:00,0.927,1.454,0.948,1.745,1.205,0.503,0.927,0.855,�k�k��,3.9,��
2017/10/12,10:10,0.926,1.452,0.947,1.746,1.207,0.503,0.927,0.852,�k�k��,4.3,��
2017/10/12,10:20,0.926,1.455,0.946,1.749,1.205,0.504,0.926,0.855,�k,5.4,��
2017/10/12,10:30,0.929,1.456,0.945,1.751,1.205,0.504,0.927,0.853,�k,4.6,��
2017/10/12,10:40,0.930,1.455,0.949,1.747,1.208,0.504,0.926,0.855,�k,3.2,��
2017/10/12,10:50,0.929,1.452,0.946,1.748,1.206,0.504,0.928,0.854,�k,4.1,��
2017/10/12,11:00,0.929,1.453,0.947,1.748,1.209,0.503,0.928,0.855,�k,4.2,��
2017/10/12,11:10,0.930,1.455,0.946,1.749,1.207,0.502,0.929,0.855,�k,5.9,��
2017/10/12,11:20,0.929,1.456,0.948,1.747,1.208,0.503,0.926,0.855,�k,4.6,��
2017/10/12,11:30,0.930,1.457,0.950,1.749,1.207,0.503,0.927,0.854,�k�k��,5.0,��
2017/10/12,11:40,0.931,1.452,0.950,1.751,1.210,0.505,0.926,0.856,�k�k��,6.5,��
2017/10/12,11:50,0.930,1.455,0.948,1.751,1.208,0.505,0.928,0.854,�k�k��,4.3,��
2017/10/12,12:00,0.929,1.457,0.949,1.749,1.209,0.505,0.929,0.855,�k�k��,5.2,��
2017/10/12,12:10,0.930,1.459,0.948,1.753,1.210,0.500,0.929,0.855,�k�k��,3.6,��
2017/10/12,12:20,0.930,1.460,0.950,1.750,1.210,0.503,0.928,0.856,�k��,5.8,��
2017/10/12,12:30,0.932,1.457,0.951,1.754,1.209,0.505,0.928,0.856,�k��,6.7,��
2017/10/12,12:40,0.928,1.460,0.951,1.751,1.211,0.504,0.929,0.855,�k��,6.8,��
2017/10/12,12:50,0.929,1.463,0.949,1.754,1.208,0.504,0.928,0.852,�k��,6.8,��
2017/10/12,13:00,0.931,1.461,0.949,1.752,1.212,0.503,0.929,0.856,���k��,5.4,��
2017/10/12,13:10,0.929,1.459,0.950,1.753,1.211,0.504,0.930,0.856,�k�k��,2.2,��
2017/10/12,13:20,0.932,1.456,0.949,1.756,1.211,0.504,0.926,0.855,���k��,4.2,��
2017/10/12,13:30,0.931,1.457,0.948,1.752,1.208,0.505,0.926,0.856,���k��,3.0,��
2017/10/12,13:40,0.930,1.460,0.949,1.754,1.209,0.504,0.927,0.856,���k��,2.6,��
2017/10/12,13:50,0.930,1.459,0.950,1.753,1.209,0.504,0.930,0.856,��,2.3,��
2017/10/12,14:00,0.929,1.460,0.950,1.754,1.211,0.504,0.926,0.855,�k,3.2,��
2017/10/12,14:10,0.934,1.461,0.952,1.755,1.210,0.504,0.926,0.856,-,CALM,��
2017/10/12,14:20,0.932,1.460,0.948,1.753,1.214,0.504,0.926,0.855,�k�k��,2.6,��
2017/10/12,14:30,0.932,1.460,0.948,1.755,1.210,0.505,0.928,0.857,�k,3.3,��
2017/10/12,14:40,0.933,1.462,0.950,1.755,1.211,0.507,0.928,0.856,�k�k��,2.3,��
2017/10/12,14:50,0.930,1.462,0.951,1.755,1.210,0.503,0.928,0.855,�k��,2.3,��
2017/10/12,15:00,0.932,1.462,0.949,1.754,1.213,0.505,0.929,0.857,�k,0.8,��
2017/10/12,15:10,0.930,1.461,0.950,1.755,1.212,0.505,0.927,0.857,�쓌,0.6,��
2017/10/12,15:20,0.931,1.457,0.950,1.754,1.213,0.504,0.928,0.857,�k,2.2,��
2017/10/12,15:30,0.932,1.460,0.953,1.757,1.212,0.503,0.928,0.855,�k,2.9,��
2017/10/12,15:40,0.932,1.461,0.952,1.754,1.213,0.504,0.926,0.858,�k�k��,3.6,��
2017/10/12,15:50,0.930,1.466,0.950,1.757,1.212,0.504,0.926,0.855,�k��,2.0,��
2017/10/12,16:00,0.930,1.464,0.952,1.757,1.215,0.504,0.928,0.856,�k�k��,2.0,��
2017/10/12,16:10,0.931,1.465,0.952,1.757,1.212,0.504,0.927,0.856,�k,3.9,��
2017/10/12,16:20,0.931,1.466,0.952,1.754,1.212,0.505,0.927,0.857,�k,4.4,��
2017/10/12,16:30,0.931,1.465,0.953,1.757,1.213,0.506,0.928,0.857,�k,4.8,��
2017/10/12,16:40,0.931,1.469,0.953,1.758,1.214,0.504,0.927,0.856,�k,4.7,��
2017/10/12,16:50,0.931,1.469,0.952,1.756,1.217,0.504,0.926,0.857,�k�k��,5.4,��
2017/10/12,17:00,0.931,1.465,0.953,1.759,1.217,0.504,0.928,0.856,�k,5.0,��
2017/10/12,17:10,0.930,1.470,0.952,1.754,1.215,0.505,0.926,0.857,�k,5.9,��
2017/10/12,17:20,0.933,1.470,0.952,1.759,1.213,0.505,0.929,0.859,�k,6.0,��
2017/10/12,17:30,0.929,1.470,0.953,1.754,1.216,0.505,0.928,0.859,�k,6.7,�L
2017/10/12,17:40,0.931,1.471,0.954,1.753,1.215,0.504,0.927,0.860,�k,7.5,�L
2017/10/12,17:50,0.928,1.468,0.955,1.755,1.216,0.505,0.925,0.860,�k,8.1,�L
2017/10/12,18:00,0.927,1.469,0.954,1.755,1.216,0.505,0.926,0.857,�k�k��,8.9,�L
2017/10/12,18:10,0.925,1.470,0.954,1.755,1.215,0.506,0.927,0.859,�k�k��,9.2,�L
2017/10/12,18:20,0.926,1.469,0.954,1.751,1.215,0.505,0.926,0.856,�k��,8.5,�L
2017/10/12,18:30,0.925,1.469,0.954,1.756,1.214,0.506,0.925,0.858,�k��,9.2,�L
2017/10/12,18:40,0.928,1.465,0.954,1.754,1.209,0.505,0.925,0.857,�k��,9.3,�L
2017/10/12,18:50,0.926,1.460,0.954,1.755,1.212,0.505,0.924,0.855,�k��,8.0,�L
2017/10/12,19:00,0.926,1.462,0.955,1.755,1.211,0.504,0.925,0.855,�k��,7.8,�L
2017/10/12,19:10,0.925,1.460,0.956,1.754,1.207,0.507,0.924,0.852,�k��,7.7,�L
2017/10/12,19:20,0.925,1.456,0.953,1.754,1.206,0.509,0.923,0.854,�k��,7.6,�L
2017/10/12,19:30,0.926,1.451,0.951,1.749,1.205,0.511,0.924,0.854,�k��,7.8,�L
2017/10/12,19:40,0.925,1.448,0.952,1.748,1.204,0.510,0.923,0.852,�k��,8.7,�L
2017/10/12,19:50,0.925,1.447,0.950,1.744,1.203,0.511,0.924,0.853,�k��,7.0,�L
2017/10/12,20:00,0.924,1.445,0.951,1.744,1.200,0.509,0.923,0.855,�k��,6.6,�L
2017/10/12,20:10,0.921,1.444,0.948,1.739,1.199,0.508,0.922,0.851,�k�k��,3.6,�L
2017/10/12,20:20,0.921,1.437,0.947,1.741,1.198,0.508,0.921,0.851,�k�k��,4.6,�L
2017/10/12,20:30,0.918,1.434,0.944,1.732,1.195,0.509,0.920,0.853,�k,4.0,�L
2017/10/12,20:40,0.917,1.435,0.945,1.728,1.193,0.509,0.920,0.853,�k,2.0,�L
2017/10/12,20:50,0.917,1.432,0.944,1.727,1.189,0.509,0.919,0.852,�k�k��,6.2,�L
2017/10/12,21:00,0.913,1.426,0.940,1.722,1.185,0.508,0.917,0.849,�k�k��,6.2,�L
2017/10/12,21:10,0.911,1.421,0.939,1.713,1.180,0.510,0.913,0.847,�k,4.2,�L
2017/10/12,21:20,0.910,1.419,0.940,1.707,1.178,0.509,0.911,0.846,�k�k��,4.2,�L
2017/10/12,21:30,0.912,1.420,0.938,1.711,1.181,0.507,0.914,0.846,�k,4.4,�L
2017/10/12,21:40,0.911,1.419,0.939,1.710,1.182,0.509,0.912,0.844,�k,3.8,�L
2017/10/12,21:50,0.910,1.422,0.939,1.709,1.183,0.507,0.911,0.846,�k�k��,4.0,�L
2017/10/12,22:00,0.911,1.420,0.937,1.710,1.182,0.505,0.911,0.848,�k,3.3,�L
2017/10/12,22:10,0.908,1.425,0.935,1.711,1.179,0.505,0.912,0.847,�k�k��,3.0,�L
2017/10/12,22:20,0.908,1.420,0.932,1.710,1.178,0.503,0.910,0.846,�k,2.3,�L
2017/10/12,22:30,0.906,1.416,0.932,1.707,1.178,0.505,0.908,0.846,�k�k��,3.1,�L
2017/10/12,22:40,0.907,1.418,0.930,1.708,1.178,0.503,0.912,0.846,�k�k��,1.7,�L
2017/10/12,22:50,0.905,1.419,0.930,1.707,1.181,0.500,0.907,0.846,�k,2.2,�L
2017/10/12,23:00,0.905,1.420,0.931,1.706,1.177,0.504,0.909,0.844,�k,2.6,�L
2017/10/12,23:10,0.906,1.419,0.930,1.704,1.174,0.503,0.909,0.847,�k,3.0,�L
2017/10/12,23:20,0.904,1.418,0.929,1.703,1.175,0.502,0.911,0.845,�k,2.3,�L
2017/10/12,23:30,0.904,1.418,0.928,1.705,1.176,0.501,0.910,0.845,�k,2.8,�L
2017/10/12,23:40,0.903,1.420,0.929,1.707,1.175,0.501,0.908,0.846,�k,2.2,�L
2017/10/12,23:50,0.905,1.419,0.928,1.705,1.174,0.501,0.907,0.845,�k�k��,2.0,�L
